This demonstration page uses our WeatherBlox Daily Observations layout. Learn more.

38.88101, -77.10428

Hourly Observations for April 20, 2018

Temp ( °F °C ) Dew Point ( °F °C ) Humidity (%) Winds ( mph kmh ) Pressure ( in mb ) Visibility ( mi km ) Precip ( " mm )
12:52 am 00:52 Clear 44 6.7 22 -5.6 41 41 NW 8 13 30.18 1022 10 16.0934 0 0
1:52 am 01:52 Clear 43 6.1 22 -5.6 43 43 NW 10 17 30.19 1022 10 16.0934 0 0
2:52 am 02:52 Clear 42 5.6 21 -6.1 43 43 NNW 15 24 30.21 1023 10 16.0934 0 0
3:52 am 03:52 Clear 40 4.4 21 -6.1 47 47 NNW 12 19 30.23 1024 10 16.0934 0 0
4:52 am 04:52 Clear 40 4.4 21 -6.1 47 47 NW 12 19 30.25 1025 10 16.0934 0 0
5:52 am 05:52 Clear 39 3.9 22 -5.6 50 50 W 8 13 30.27 1025 10 16.0934 0 0
6:52 am 06:52 Sunny 39 3.9 22 -5.6 50 50 W 9 15 30.29 1026 10 16.0934 0 0
7:52 am 07:52 Sunny 42 5.6 21 -6.1 43 43 W 9 15 30.29 1026 10 16.0934 0 0
8:52 am 08:52 Sunny 45 7.2 22 -5.6 40 40 NW 14 22 30.3 1026 10 16.0934 0 0
9:52 am 09:52 Sunny 47 8.3 22 -5.6 37 37 NW 10 17 30.31 1026 10 16.0934 0 0
10:52 am 10:52 Sunny 49 9.4 24 -4.4 38 38 NW 15 24 30.32 1027 10 16.0934 0 0
11:52 am 11:52 Sunny 52 11.1 26 -3.3 37 37 N 15 24 30.32 1027 10 16.0934 0 0
12:52 pm 12:52 Sunny 54 12.2 26 -3.3 34 34 NW 14 22 30.31 1026 10 16.0934 0 0
1:52 pm 13:52 Sunny 56 13.3 27 -2.8 33 33 NW 16 26 30.29 1026 10 16.0934 0 0
2:52 pm 14:52 Sunny 58 14.4 26 -3.3 29 29 NW 14 22 30.28 1025 10 16.0934 0 0
3:52 pm 15:52 Sunny 60 15.6 26 -3.3 27 27 NW 18 30 30.27 1025 10 16.0934 0 0
4:52 pm 16:52 Mostly Sunny 60 15.6 26 -3.3 27 27 NNW 16 26 30.27 1025 10 16.0934 0 0
5:52 pm 17:52 Sunny 60 15.6 26 -3.3 27 27 NNW 18 30 30.28 1026 10 16.0934 0 0
6:52 pm 18:52 Sunny 59 15 25 -3.9 27 27 NW 17 28 30.29 1026 10 16.0934 0 0
7:52 pm 19:52 Clear 57 13.9 24 -4.4 28 28 NNW 13 20 30.31 1027 10 16.0934 0 0
8:52 pm 20:52 Clear 56 13.3 25 -3.9 30 30 NW 13 20 30.34 1027 10 16.0934 0 0
9:52 pm 21:52 Clear 53 11.7 26 -3.3 35 35 NNW 7 11 30.35 1028 10 16.0934 0 0
10:52 pm 22:52 Clear 53 11.7 26 -3.3 35 35 NNW 10 17 30.37 1028 10 16.0934 0 0
11:52 pm 23:52 Clear 51 10.6 25 -3.9 36 36 NNW 7 11 30.38 1029 10 16.0934 0 0

Powered by AerisWeather